Location: *
(2.5500°S, 65.9667°W)
Time: 07:07:55
(UTC+00:00)

Explorer 7 - Pass Details

Date: 20 April 2024
Orbit: 467 x 625 km, 50.3° (Epoch: 26 May)

Event Time Altitude Azimuth Distance (km) Brightness Sun altitude
Rises 13:01:52 0° 243° (WSW) 2,736 9.9 38.1°
Reaches altitude 10° 13:04:33 10° 260° (W) 1,870 9.2 38.7°
Maximum altitude 13:07:43 20° 308° (NW) 1,364 8.7 39.5°
Drops below altitude 10° 13:11:00 10° 356° (N) 1,931 9.9 40.3°
Sets 13:13:49 0° 12° (NNE) 2,855 10.8 40.9°
